GSAT-29

Last updated on Wed Sep 09 2026 00:03:02 GMT+0000 (Coordinated Universal Time)

1 43698U 18089A 26251.45599987 .00000064 00000+0 00000+0 0 9996 2 43698 0.0640 271.5681 0001578 252.4223 42.6998 1.00273117 28621
UTC large
Height (km)
Speed (km/s)
/
Latitude / Longitude
Inclination (degrees)
Orbital Period (minutes)
Azimuth
Elevation
Range (km)
Doppler Factor

Next 0 passes for location: London (51.5072 / 0.1276)

No passes found over London.
GSAT-29